Tracking 29892 objects as of 21-Nov-2024
HD Live streaming from Space Station
objects crossing your sky now

COSMOS 90

Track COSMOS 90 now!
10-day predictions
COSMOS 90 is classified as:


NORAD ID: 1588
Int'l Code: 1965-073E
Perigee: 1,412.0 km
Apogee: 1,661.5 km
Inclination: 56.1 °
Period: 116.6 minutes
Semi major axis: 7907 km
RCS: 0.564 m2 (medium)
Launch date: September 18, 1965
Source: Commonwealth of Independent States (former USSR) (CIS)
Launch site: TYURATAM MISSILE AND SPACE COMPLEX (TTMTR)
Your satellite tracking list
Your tracking list is empty




NASA's NSSDC Master Catalog

Two Line Element Set (TLE):
1 01588U 65073E   24325.43539250 -.00000076  00000-0  12614-3 0  9991
2 01588  56.0574 336.9378 0157746  47.4172 100.5764 12.34584084668131
Source of the keplerian elements: AFSPC